STARLINK-32595, 62037

Orbit data source: Space-Track

STARLINK-32595, 62037 is a payload satellite owned by SpaceX/Seattle (US) in LEO that was launched on Thu, 21 Nov 2024 UTC via an FALCON 9 launch vehicle from the Air Force Eastern Test Range (AFETR). Payload-class satellites include a variety of spacecraft equipped with specific instruments for various scientific and technological missions. These include communications satellites like Starlink; space stations such as the ISS; scientific satellites like the Hubble; Earth observation satellites from companies like Planet Labs, Umbra, and HawkEye 360; GPS; miniature CubeSats for education and research; and military/defense satellites.

Loading next visibility...
Identifier
62037, 2024-216F
Orbit
LEO
Country
Flag of USUS
Related business
Manufacturer
SpaceX/Seattle
Mission
Operational Commercial Communications
Bus & Motor
STARLINK V2M, Unknown motor
Mass
730 kg wet, ~700 kg dry
Launch date (UTC)
2024-11-21 (1 year ago)
Launch vehicle
FALCON 9
Launch site
Air Force Eastern Test Range (AFETR)
Object type
Payload
Rocket body
Debris
Shape & HBR
Box + 2 Pan, 17.7 m
Radar Cross Section
33.884 m², Large (>1 m²)

Expand to show TLE details & history
Last TLE update: 10 hours ago

TLE from 10 hours ago
0 STARLINK-32595
1 62037U 24216F   25346.86409211  .00040271  00000-0  14641-2 0  9996
2 62037  43.0002  33.8638 0000351   2.9467 357.1387 15.27598896 60524
Epoch: 2025-12-12T20:44Z
TLE epoch observation values (Epoch: 2025-12-12T20:44:17.558Z)
Latitude
0.00001°
Longitude
0.99105°
Altitude
482.527 km
Speed
7.626 km/s
True Right ascension
02h 15m 27s
True Declination
0° 00' 00"
Sunlit
Object was in full shadow at epoch
Visualization orbit readout
Latitude
Unknown
Longitude
Unknown
Altitude
Unknown
Speed
Unknown
Apparent Right ascension
Unknown
Apparent Declination
Unknown
Sunlit
N/A
Visualization observer readout
Local Sidereal Time
05:22:31
Azimuth
Unknown
Elevation
Unknown
Doppler factor
Unknown
Orbital elements
Apogee altitude
485.179 km
Perigee altitude
484.697 km
Semi-major axis
6,863.075 km
Eccentricity
0.00004
Inclination
43.0002°
RAAN
33.8638°
Arg. of periapsis
2.9467°
True anomaly
357.1385°
Mean anomaly
357.1387°
Eccentric anomaly
357.1386°
Mean motion
3.81738 °/min
Orbital period
94.31 mins
BSTAR
0.0014641
Loading maneuver chart data...
Computing Atmospheric mass density...
Loading historical data...
Loading historical data...
Loading historical data...
Loading historical data...
Loading historical data...
Loading historical data...
Loading historical data...

Documentation

Showing up to 5 results
|